Terminal Aerodrome Forecast
Issued by NWS

Home | Current Version | Previous Version | Text Only | Print | Product List | Glossary Off
Versions: 1 2 3 4 5 6 7 8 9 10 11 12 13 14 15 16 17 18 19

813
FTUS43 KGRB 220246 AAB
TAFCWA
TAF AMD
KCWA 220246Z 2203/2224 15010KT P6SM BKN045 WS010/18035KT
     FM220500 17010G15KT P6SM -TSRA OVC025CB WS010/19035KT
     FM220700 18008G15KT 6SM -SHRA OVC027 WS010/19035KT
     FM220900 22007KT 5SM -SHRA OVC008
     FM221500 27007KT P6SM -SHRA OVC018
     FM221900 29007KT P6SM SCT030=

USA.gov is the U.S. government's official web portal to all federal, state and local government web resources and services.